Location: Condécourt
(49.0404°N, 1.9420°E)
Time: 05:35:09
(UTC+00:00)

Daily predictions for brighter satellites

Satellite Brightness Start Highest point End
(mag) Time Altitude Azimuth Time Altitude Azimuth Time Altitude Azimuth
CENTAUR R/B 4.3 03:04:19 32° NNE 03:04:19 32° NNE 03:11:34 10° E
CZ-4C R/B 4.4 03:07:03 24° NNE 03:07:03 24° NNE 03:11:55 10° ENE
Cosmos 2360 Rocket 4.4 03:26:59 18° NE 03:26:59 18° NE 03:28:24 10° NNE
Cosmos 2219 Rocket 4.1 03:26:00 25° ENE 03:26:00 25° ENE 03:28:50 10° NE
USA 267 4.2 03:34:12 10° ENE 03:39:04 40° NNE 03:39:04 40° NNE
Cosmos 2322 Rocket 4.2 03:49:40 19° NNE 03:49:40 19° NNE 03:51:13 10° NNE
USA 229 DEB 4.1 03:55:04 51° SE 03:55:12 52° ESE 04:01:43 10° NE
USA 229 4.1 03:55:05 51° SE 03:55:16 51° ESE 04:01:45 10° NE
NOSS 3-1 (A) 4.2 04:06:42 40° NNE 04:06:42 40° NNE 04:10:47 10° NE
SL-16 R/B 4.2 04:18:05 17° N 04:18:05 17° N 04:19:31 10° NNE
CZ-3B R/B 3.3 04:15:40 59° NNE 04:15:53 59° NNE 04:28:17 10° ESE
COSMOS 2428 3.5 04:14:59 32° SSE 04:17:12 48° ESE 04:22:41 10° NE
Cosmos 2333 Rocket 3.3 04:20:28 35° NNE 04:20:28 35° NNE 04:23:48 10° NNE
H-2A R/B 3.0 04:16:57 10° NNE 04:21:39 43° E 04:26:23 10° S
Cosmos 2278 Rocket 2.8 04:24:59 43° NNE 04:26:15 51° NE 04:31:45 10° SE
ATLAS 3B R/B 3.2 04:27:35 49° NNW 04:27:35 49° NNW 04:34:28 10° NE
Cosmos 2237 Rocket 4.2 04:30:24 10° SSE 04:35:05 27° ESE 04:39:47 10° NE
Cosmos 1452 Rocket 3.5 04:37:27 81° ESE 04:37:27 81° ESE 04:42:33 10° SSE
Cosmos 1464 Rocket 4.4 04:42:50 45° NNW 04:42:50 45° NNW 04:47:18 10° N
ARIANE 5 R/B 2.9 04:36:26 10° NNE 04:41:38 65° ESE 04:46:49 10° S
Cosmos 2322 3.5 04:46:56 62° SW 04:47:58 85° WNW 04:53:41 10° NNE
Lacrosse 5 rocket 1.9 04:49:07 57° NE 04:49:07 57° NE 04:52:38 10° NE
CZ-4C R/B 3.5 04:52:10 28° NNW 04:55:51 52° NE 05:03:54 10° ESE
SL-19 R/B 4.2 04:50:26 10° NNE 04:55:53 75° ESE 05:01:07 10° S
CENTAUR R/B 3.5 04:51:29 29° NNW 04:56:07 67° NE 05:05:10 10° SE
CZ-3 R/B 4.3 04:46:48 17° WSW 04:58:10 28° SSW 05:05:24 10° SE
Cosmos 1331 Rocket 3.8 05:00:29 59° NW 05:01:27 78° WSW 05:06:37 10° SSE
NOSS 3-2 (A) 4.4 04:57:18 27° NNW 05:01:28 59° NE 05:09:48 10° ESE
Cosmos 1048 Rocket 3.8 05:00:11 36° SSW 05:02:21 83° WNW 05:07:30 10° NNE
Meteor 2-3 Rocket 3.5 04:58:19 10° SSW 05:03:53 73° WNW 05:09:29 10° N
Cosmos 1515 4.0 05:05:38 57° SSE 05:05:38 57° SSE 05:08:35 10° SSE
Cosmos 1378 4.4 05:04:19 23° NNE 05:05:51 36° ENE 05:09:04 10° SE
COSMO-SKYMED 1 2.4 05:02:09 10° SSE 05:06:29 81° WSW 05:07:00 68° NW
Cosmos 2360 Rocket 3.5 05:08:46 24° NNW 05:08:46 24° NNW 05:12:04 10° NNE
Cosmos 2219 Rocket 2.5 05:07:46 45° NW 05:07:46 45° NW 05:13:01 10° NNE
Cosmos 1943 Rocket 2.7 05:05:27 22° NNW 05:08:56 55° NE 05:14:19 10° SE
BREEZE-M DEB (TANK) 2.2 05:12:19 73° W 05:12:40 90° NNW 05:19:46 10° E
SJ-12 4.3 05:09:23 10° NNE 05:13:25 63° ESE 05:17:24 10° S
CZ-2D R/B 3.2 05:10:14 10° NNE 05:14:10 89° WNW 05:18:07 10° SSW
Cosmos 2034 Rocket 4.1 05:08:11 10° SSW 05:14:19 51° WNW 05:20:26 10° N
Cosmos 1842 Rocket 3.9 05:14:32 13° N 05:18:25 65° E 05:22:50 10° SSE
Cosmos 1825 Rocket 3.6 05:19:36 54° NW 05:19:36 54° NW 05:23:26 10° N
JB-3 4.2 05:15:17 10° SSE 05:19:20 86° WSW 05:20:49 38° NNW
NOAA 12 4.4 05:14:13 10° NNE 05:19:30 67° ESE 05:24:43 10° S
Cosmos 1666 4.3 05:17:13 10° SSE 05:20:23 32° E 05:23:35 10° NNE
NOSS 0 Rocket 4.0 05:14:32 10° SSW 05:20:46 80° ESE 05:27:03 10° NNE
Cosmos 1862 3.0 05:17:42 10° SSW 05:21:32 75° W 05:25:25 10° N
USA 267 3.6 05:16:23 10° E 05:22:47 58° NNE 05:26:25 27° NW
SL-08 R/B 3.1 05:19:57 10° S 05:24:35 71° WSW 05:27:11 26° NNW
Cosmos 2026 Rocket 4.1 05:19:49 10° NNW 05:26:02 55° W 05:32:09 10° SSW
NOSS 8 (E) 4.3 05:28:56 65° NW 05:29:24 83° SW 05:33:29 10° SE
IRS-1C 4.2 05:24:24 10° N 05:29:34 50° WNW 05:34:41 10° SW
Cosmos 2322 Rocket 3.8 05:31:30 17° NNW 05:31:30 17° NNW 05:34:29 10° N
TRACE 4.4 05:28:51 10° S 05:32:26 74° WSW 05:33:35 40° NNW
Cosmos 1076 Rocket 3.7 05:29:57 10° S 05:34:14 74° E 05:38:35 10° NNE
Cosmos 1437 Rocket 2.4 05:36:09 10° SSW 05:39:50 85° WNW 05:43:32 10° N
Cosmos 2221 2.9 05:39:56 37° WNW 05:40:24 38° W 05:44:21 10° SSW
ATLAS 5 CENTAUR R/B 3.4 05:38:14 10° S 05:41:03 24° ESE 05:44:05 10° ENE
Cosmos 2369 Rocket 3.7 05:40:15 10° NNW 05:45:19 32° NE 05:50:22 10° ESE
NOSS 8 (H) 4.4 05:44:17 39° NW 05:45:27 84° SW 05:49:38 10° SE
USA 229 DEB 3.9 05:42:33 24° W 05:46:15 47° NW 05:52:59 10° NE
USA 229 3.9 05:42:34 23° W 05:46:18 47° NW 05:53:02 10° NE
Cosmos 1092 Rocket 4.4 05:41:00 10° NNW 05:46:40 38° W 05:52:21 10° SSW
USA 281 3.2 05:43:35 10° NNE 05:50:04 63° WNW 05:56:30 10° SW
ARGOS 3.0 05:45:06 10° N 05:50:30 74° WNW 05:55:50 10° SSW
Cosmos 1500 2.8 05:47:09 10° SSW 05:50:41 75° W 05:54:14 10° N
Meteor 2-6 Rocket 4.2 05:48:07 10° NNW 05:53:49 62° W 05:59:19 10° S
Cosmos 1980 3.6 05:48:29 10° SSW 05:54:08 78° WNW 05:59:51 10° NNE
SKYMED 2 4.5 05:51:03 10° SSW 05:54:46 28° W 05:55:36 26° WNW
NOSS 3-1 (A) 4.4 05:54:08 21° NW 05:56:33 28° NNW 06:02:14 10° NE
FengYun 1-2 T 4.3 05:52:51 10° N 05:58:21 56° WNW 06:03:45 10° SW
Cosmos 1602 3.7 05:55:30 10° S 05:59:09 79° E 06:02:51 10° NNE
CZ-2D R/B 3.0 05:55:45 10° NNE 05:59:25 84° WNW 06:03:04 10° SSW
Meteor 2-12 Rocket 4.5 05:53:27 10° N 05:59:35 86° E 06:05:44 10° S
Cosmos 1302 Rocket 4.1 05:56:09 16° NW 06:00:11 53° WSW 06:05:14 10° S
SL-16 R/B 4.2 05:59:57 11° NNW 06:00:27 11° NNW 06:01:46 10° N
Cosmos 1634 Rocket 4.2 05:54:37 10° SW 06:00:31 44° WNW 06:06:30 10° N
H-2A R/B 2.7 05:56:42 10° N 06:00:54 29° WNW 06:05:08 10° WSW
COSMOS 2428 3.3 05:57:07 13° WSW 06:01:38 36° NW 06:06:53 10° NNE
Cosmos 2333 Rocket 3.7 06:02:30 17° NW 06:03:28 18° NW 06:07:19 10° N
Intercosmos 25 Rocket 3.7 06:00:13 10° S 06:03:50 79° E 06:09:18 10° NNE
ERS-2 1.4 06:01:34 10° N 06:04:30 73° WNW 06:07:24 10° SSW
Helios 1B rocket 2.2 06:02:32 10° NNE 06:06:32 82° WNW 06:10:31 10° SSW
SAR-Lupe-2 3.5 06:05:04 10° NNE 06:08:40 88° WNW 06:12:14 10° SSW
Cosmos 2278 Rocket 3.0 06:06:51 18° WNW 06:10:05 30° WSW 06:14:56 10° SSW
Cosmos 2151 3.4 06:06:17 10° SW 06:10:14 39° WNW 06:14:14 10° N
SMAP 3.6 06:06:38 10° NNE 06:11:16 63° ESE 06:15:53 10° S
CZ-2C R/B 2.7 06:07:54 10° NNE 06:11:42 90° NW 06:15:31 10° SSW
Cosmos 1151 Rocket 3.8 06:07:33 10° N 06:11:48 52° ENE 06:16:02 10° SSE
Cosmos 1953 Rocket 4.4 06:10:18 10° SW 06:14:09 28° WNW 06:18:02 10° N
PSLV R/B 3.8 06:11:34 10° N 06:15:41 44° WNW 06:19:44 10° SW
Cosmos 1992 Rocket 3.9 06:10:53 10° NNW 06:16:08 77° WSW 06:21:19 10° SSE
Cosmos 1544 3.9 06:14:27 10° SW 06:17:02 22° WNW 06:19:38 10° NNW
Cosmos 2285 Rocket 4.2 06:12:36 10° SW 06:18:44 49° WNW 06:24:58 10° NNE
Cosmos 2237 Rocket 2.3 06:13:15 10° SW 06:18:49 56° WNW 06:24:23 10° NNE
ATLAS 3B R/B 4.0 06:14:50 15° WNW 06:19:42 27° N 06:26:07 10° NE
ARIANE 5 R/B 3.6 06:16:17 10° N 06:20:16 23° WNW 06:24:15 10° WSW
Cosmos 2279 Rocket 4.2 06:14:45 10° SSW 06:20:45 47° WNW 06:26:47 10° N
GENESIS II 4.2 06:17:53 10° SW 06:21:41 55° NW 06:25:30 10° NNE
Geosat 4.2 06:17:53 10° NNE 06:22:45 50° NW 06:27:34 10° SW
SL-08 RB Rocket 4.1 06:20:04 10° N 06:24:25 42° WNW 06:28:47 10° SW
Cosmos 1461 3.0 06:20:30 10° SW 06:24:58 89° NNW 06:29:21 10° NE
AQUARIUS 4.5 06:22:29 10° NNE 06:26:58 71° ESE 06:31:25 10° S
Lacrosse 5 rocket 2.3 06:24:13 15° WNW 06:27:19 34° NNW 06:31:20 10° NE
Cosmos 614 Rocket 3.9 06:24:39 10° SSW 06:29:52 78° WNW 06:35:07 10° NNE
USA 215 3.6 06:23:21 10° ENE 06:29:54 72° SE 06:36:24 10° SW
NOSS 3-2 (C) 4.1 06:22:45 10° NW 06:30:07 86° NE 06:38:47 10° SE
Cosmos 2297 3.8 06:29:40 10° NNW 06:35:22 86° ENE 06:41:00 10° SSE
Meteor 1-25 Rocket 4.4 06:35:12 10° S 06:41:01 83° E 06:46:49 10° NNE
CZ-4C R/B 3.3 06:37:37 10° NW 06:44:41 57° WSW 06:53:04 10° SSE
SeaSat 1 2.5 06:41:38 10° SSE 06:46:33 89° ENE 06:51:31 10° NNW
CENTAUR R/B 3.7 06:39:04 10° NW 06:46:53 45° WSW 06:55:23 10° S
Meteor 1-31 Rocket 2.7 06:43:50 10° N 06:47:35 59° WNW 06:51:19 10° SSW
Cosmos 1943 Rocket 3.2 06:47:45 10° NW 06:52:21 27° WSW 06:56:54 10° SSW
Cosmos 2219 Rocket 3.9 06:50:18 10° WNW 06:53:03 13° NNW 06:55:49 10° N
Meteor 1-27 Rocket 3.9 06:47:47 10° NNW 06:53:09 52° W 06:58:28 10° S
Cosmos 1666 3.9 06:52:40 10° WSW 06:55:14 19° WNW 06:57:50 10° NNW
CZ-4B R/B 3.8 06:52:30 10° NNE 06:57:16 69° ESE 07:01:59 10° S
Cosmos 1655 Rocket 4.3 06:52:30 10° NNW 06:58:33 50° W 07:04:36 10° SSW
Okean 1 3.6 06:56:37 10° NNW 07:00:18 44° W 07:03:57 10° SSW
Meteor 1-20 Rocket 4.2 06:57:15 10° SSW 07:02:38 58° WNW 07:08:03 10° N
